Date,TemperatureHighF,TemperatureAvgF,TemperatureLowF,DewpointHighF,DewpointAvgF,DewpointLowF,HumidityHigh,HumidityAvg,HumidityLow,PressureMaxIn,PressureMinIn,WindSpeedMaxMPH,WindSpeedAvgMPH,GustSpeedMaxMPH,PrecipitationSumIn
2013-1-1,38,34,24,30,23,12,76,64,51,30.04,29.85,16,3,17,0.01
2013-1-2,30,25,20,18,14,10,73,61,49,30.20,30.01,22,2,22,0.00
2013-1-3,32,26,17,20,16,13,85,66,51,30.21,30.07,11,1,11,0.00
2013-1-4,37,33,30,25,22,20,73,64,54,30.09,29.95,14,3,17,0.00
2013-1-5,41,34,26,26,22,19,89,65,49,30.29,30.02,18,2,19,0.00
2013-1-6,45,36,28,31,28,24,88,72,50,30.24,29.98,12,1,12,0.00
2013-1-7,42,34,24,30,25,21,93,74,43,30.41,30.06,15,1,16,0.00
2013-1-8,47,31,20,32,26,19,95,81,50,30.44,30.34,7,0,7,0.00
2013-1-9,46,34,23,38,30,22,96,85,63,30.41,30.15,14,0,14,0.00
2013-1-10,46,40,30,33,26,24,87,60,42,30.56,30.23,20,2,22,0.00
2013-1-11,39,34,28,38,31,26,98,89,69,30.56,30.12,4,0,4,0.32
2013-1-12,46,42,38,44,42,38,99,97,93,30.19,30.09,5,0,5,0.02
2013-1-13,46,44,42,46,44,41,99,99,98,30.17,30.01,4,0,5,0.03
2013-1-14,54,47,37,52,41,28,100,83,53,30.32,29.90,18,2,18,0.10
2013-1-15,37,35,33,34,29,26,96,79,67,30.37,30.23,9,1,9,0.15
2013-1-16,34,32,30,33,31,29,97,96,85,30.25,29.82,6,1,8,0.00
2013-1-17,42,37,33,33,28,23,96,70,55,30.12,29.92,17,2,17,0.31
2013-1-18,33,25,20,24,12,3,80,59,37,30.49,30.03,14,3,14,0.00
2013-1-19,47,36,22,30,24,13,81,62,48,30.41,29.92,10,1,13,0.00
2013-1-20,50,38,28,32,23,9,95,58,24,30.05,29.69,31,3,32,0.00
2013-1-21,29,26,20,19,14,7,78,62,44,30.10,29.85,11,1,16,0.00
2013-1-22,24,17,11,15,2,-8,78,51,32,30.22,29.85,18,4,22,0.00
2013-1-23,17,11,6,3,-2,-6,86,54,36,30.27,30.18,17,2,20,0.00
2013-1-24,21,13,5,5,1,-3,89,60,36,30.43,30.15,24,4,24,0.00
2013-1-25,23,16,11,15,6,-1,92,65,45,30.43,30.09,11,1,17,0.00
2013-1-26,27,17,9,10,8,5,93,68,41,30.40,30.07,18,2,18,0.00
2013-1-27,33,23,12,16,11,8,85,62,36,30.54,30.40,23,2,23,0.00
2013-1-28,32,28,20,32,24,14,97,88,72,30.51,30.02,6,0,6,0.19
2013-1-29,53,39,32,43,36,31,98,91,66,30.17,30.01,9,0,10,0.35
2013-1-30,50,42,36,49,42,36,99,99,98,30.10,29.35,4,0,4,0.48
2013-1-31,60,43,28,60,30,10,100,62,36,29.78,29.03,30,6,33,1.01
2013-2-1,29,26,21,16,12,6,75,56,37,30.24,29.78,23,4,23,0.00
2013-2-2,28,22,16,19,11,5,90,65,40,30.31,30.07,13,2,13,0.00
2013-2-3,29,22,17,20,18,15,93,83,60,30.07,29.81,10,1,10,0.00
2013-2-4,29,25,20,21,11,7,87,57,41,29.99,29.82,18,3,18,0.00
2013-2-5,28,26,23,26,22,13,92,82,61,30.00,29.92,5,1,5,0.00
2013-2-6,38,30,22,27,19,4,97,67,35,30.37,29.93,15,2,16,0.01
2013-2-7,31,25,19,18,11,4,73,55,39,30.53,30.36,6,1,6,0.00
2013-2-8,32,30,26,31,27,18,98,90,68,30.36,29.68,16,5,16,0.00
2013-2-9,32,26,19,27,15,3,97,65,31,30.37,29.78,23,5,23,0.00
2013-2-10,39,24,11,20,11,5,87,61,27,30.50,30.34,8,1,8,0.04
2013-2-11,40,33,25,40,31,19,99,93,77,30.34,29.68,7,0,7,0.01
2013-2-12,43,38,30,35,27,23,98,66,49,29.99,29.73,19,3,19,0.00
2013-2-13,42,30,22,31,26,20,96,84,51,29.97,29.70,8,0,8,0.01
2013-2-14,46,34,26,32,28,24,98,80,44,30.01,29.73,8,0,10,0.04
2013-2-15,54,40,27,34,29,26,96,71,37,30.02,29.92,15,1,15,0.03
2013-2-16,36,33,28,33,26,13,95,77,52,29.99,29.77,13,3,13,0.05
2013-2-17,29,24,16,15,5,0,59,45,32,30.02,29.69,28,6,31,0.00
2013-2-18,35,24,15,20,7,1,75,50,30,30.25,30.01,24,4,28,0.00
2013-2-19,41,32,20,40,27,16,98,81,54,30.22,29.70,17,1,17,0.30
2013-2-20,36,29,24,24,14,9,65,55,45,29.99,29.73,22,5,22,0.00
2013-2-21,32,26,22,15,12,10,70,57,47,30.33,29.99,26,6,26,0.00
2013-2-22,38,30,20,27,21,14,85,69,53,30.42,30.28,6,1,11,0.00
2013-2-23,39,35,31,38,34,27,98,96,79,30.29,29.84,9,2,9,0.13
2013-2-24,46,37,32,37,31,22,98,79,57,29.99,29.76,17,3,18,0.02
2013-2-25,42,36,29,30,27,22,85,70,55,30.25,29.99,12,2,12,0.00
2013-2-26,42,36,26,33,30,25,96,82,67,30.31,29.92,8,2,16,0.14
2013-2-27,45,40,34,44,38,33,98,93,79,29.95,29.52,13,3,22,0.97
2013-2-28,47,40,36,38,34,30,98,79,53,29.63,29.56,10,1,11,0.00
2013-3-1,42,38,31,31,29,26,90,72,57,29.80,29.62,12,3,16,0.00
2013-3-2,37,33,29,26,24,22,83,69,60,29.79,29.72,16,4,17,0.00
2013-3-3,37,30,26,22,19,16,73,63,48,29.79,29.68,19,4,19,0.00
2013-3-4,37,31,26,21,19,15,72,61,49,29.93,29.78,23,5,24,0.00
2013-3-5,47,36,30,30,25,21,84,64,44,30.04,29.93,10,3,16,0.00
2013-3-6,41,38,35,36,31,27,90,74,64,30.00,29.89,27,6,27,0.02
2013-3-7,38,35,32,34,30,26,96,81,67,30.11,29.96,22,6,22,0.11
2013-3-8,40,34,30,35,31,29,96,90,75,30.23,30.03,12,2,18,0.49
2013-3-9,54,39,29,31,25,13,91,62,21,30.34,30.21,14,2,14,0.00
2013-3-10,52,38,25,36,31,24,96,77,51,30.41,30.30,8,1,8,0.00
2013-3-11,54,45,37,47,41,34,98,86,60,30.34,30.10,11,1,11,0.01
2013-3-12,54,49,42,53,47,36,98,92,77,30.10,29.67,14,1,14,1.07
2013-3-13,49,41,32,36,30,20,95,68,33,29.90,29.80,16,2,16,0.00
2013-3-14,39,32,26,27,13,4,71,45,23,29.98,29.85,26,6,26,0.00
2013-3-15,44,36,28,31,20,10,66,53,41,29.99,29.72,16,3,17,0.00
2013-3-16,39,33,29,30,25,19,95,73,52,29.93,29.80,9,1,9,0.02
2013-3-17,36,31,26,29,19,12,89,62,39,30.33,29.93,13,2,17,0.01
2013-3-18,34,28,21,30,19,10,97,71,47,30.43,30.05,6,2,9,0.00
2013-3-19,45,36,30,36,32,27,97,89,67,30.05,29.71,17,2,18,0.57
2013-3-20,43,35,29,27,20,15,79,56,35,29.89,29.80,18,2,19,0.00
2013-3-21,38,32,29,28,17,10,89,54,34,29.86,29.64,12,3,13,0.00
2013-3-22,40,32,26,24,18,13,75,57,44,29.90,29.74,17,2,17,0.00
2013-3-23,44,37,32,24,21,18,70,52,38,29.96,29.83,19,4,21,0.00
2013-3-24,46,37,28,27,22,19,78,56,39,29.97,29.72,17,2,17,0.00
2013-3-25,42,38,36,34,28,25,85,67,53,29.72,29.48,14,3,17,0.00
2013-3-26,49,40,30,31,28,25,87,63,38,29.88,29.61,13,2,16,0.00
2013-3-27,51,40,29,35,27,18,90,61,31,30.00,29.88,18,3,18,0.00
2013-3-28,48,42,36,33,30,28,77,63,51,30.12,29.97,11,4,17,0.00
2013-3-29,52,45,36,31,29,25,77,55,36,30.15,30.07,17,3,17,0.00
2013-3-30,57,43,29,31,26,18,95,58,23,30.18,30.07,15,2,17,0.00
2013-3-31,56,42,28,43,33,25,97,73,37,30.14,29.69,14,1,15,0.15
2013-4-1,60,46,35,46,35,12,99,71,34,29.93,29.62,20,3,21,0.01
2013-4-2,42,36,29,18,13,7,59,40,26,30.11,29.92,23,4,23,0.00
2013-4-3,44,36,31,16,13,9,52,38,26,30.32,30.09,21,4,21,0.00
2013-4-4,56,41,26,31,21,15,74,46,26,30.40,30.08,20,2,22,0.00
2013-4-5,60,47,37,29,23,18,70,41,21,30.08,29.74,15,3,19,0.00
2013-4-6,53,41,33,28,15,4,72,38,15,30.31,30.01,19,3,20,0.00
2013-4-7,62,47,34,44,34,24,87,63,30,30.31,29.98,12,1,12,0.00
2013-4-8,77,57,40,47,42,36,96,62,24,30.09,29.98,11,1,12,0.00
2013-4-9,80,65,49,52,44,35,91,53,20,30.00,29.90,20,2,20,0.00
2013-4-10,77,62,51,57,51,42,97,69,48,29.97,29.81,18,1,25,0.57
2013-4-11,63,56,49,58,48,39,98,78,53,30.03,29.79,12,3,12,0.01
2013-4-12,44,41,39,41,39,34,97,91,73,29.97,29.74,17,4,17,0.41
2013-4-13,58,51,41,42,36,32,90,58,41,29.98,29.85,15,2,15,0.03
2013-4-14,55,48,42,40,32,26,86,56,35,30.23,29.97,19,3,19,0.00
2013-4-15,62,49,38,36,32,28,79,53,33,30.38,30.23,9,1,9,0.00
2013-4-16,65,56,46,55,48,35,85,74,64,30.38,30.11,11,1,12,0.00
2013-4-17,66,59,54,57,46,33,90,65,31,30.24,30.12,12,2,12,0.00
2013-4-18,61,54,43,53,46,35,96,75,39,30.35,30.11,11,1,11,0.00
2013-4-19,78,65,54,65,60,52,99,85,60,30.11,29.63,18,1,18,0.00
2013-4-20,58,51,42,52,34,22,94,56,29,30.33,29.69,21,4,21,0.00
2013-4-21,53,43,34,29,22,16,67,45,25,30.63,30.33,14,3,20,0.00
2013-4-22,55,45,34,35,31,22,90,60,29,30.68,30.51,13,2,13,0.00
2013-4-23,51,44,38,42,37,31,89,77,70,30.51,30.13,12,3,12,0.00
2013-4-24,74,55,37,52,45,36,97,73,44,30.13,29.81,11,1,12,0.00
2013-4-25,64,54,44,54,31,19,89,46,18,30.27,29.85,22,3,27,0.00
2013-4-26,65,54,38,36,30,18,90,46,17,30.42,30.27,13,2,13,0.00
2013-4-27,70,54,37,40,32,24,89,48,23,30.44,30.27,10,1,10,0.00
2013-4-28,74,56,39,43,37,30,88,52,26,30.32,30.19,11,1,11,0.00
2013-4-29,55,53,49,51,47,37,96,81,54,30.24,30.19,6,0,6,0.00
2013-4-30,70,58,45,49,40,25,92,58,23,30.34,30.21,7,1,7,0.00
2013-5-1,71,54,36,46,37,24,92,58,22,30.50,30.34,9,1,9,0.00
2013-5-2,77,58,40,48,41,35,97,60,24,30.49,30.32,7,1,7,0.00
2013-5-3,69,57,46,46,39,31,89,53,28,30.47,30.35,8,1,8,0.00
2013-5-4,74,55,40,46,42,39,97,68,33,30.39,30.22,7,1,8,0.00
2013-5-5,68,52,40,45,41,36,96,70,36,30.31,30.21,6,1,6,0.00
2013-5-6,73,55,40,55,47,38,96,77,47,30.28,30.15,8,1,8,0.00
2013-5-7,76,61,45,59,53,44,98,76,49,30.18,30.08,10,0,10,0.00
2013-5-8,64,60,54,62,59,53,98,95,86,30.12,29.98,5,0,5,0.00
2013-5-9,68,58,51,59,55,50,99,90,64,30.02,29.89,7,0,8,0.00
2013-5-10,81,65,51,60,55,50,99,74,39,30.01,29.90,9,1,10,0.00
2013-5-11,72,64,61,66,62,58,98,93,78,29.90,29.71,14,0,16,0.00
2013-5-12,67,60,49,62,41,26,98,53,25,29.94,29.66,20,3,21,0.00
2013-5-13,53,46,38,36,30,24,88,56,33,30.13,29.94,11,2,15,0.02
2013-5-14,59,47,35,36,31,21,93,57,23,30.15,30.03,7,2,12,0.00
2013-5-15,70,55,38,57,46,35,94,74,51,30.08,29.67,7,0,7,0.00
2013-5-16,83,66,50,56,50,40,98,63,24,29.85,29.71,13,1,13,0.00
2013-5-17,73,62,52,50,43,37,84,50,28,30.22,29.85,10,1,10,0.00
2013-5-18,66,57,46,55,50,44,95,78,49,30.31,30.21,4,0,5,0.00
2013-5-19,59,57,55,58,56,54,99,97,90,30.33,30.19,5,0,5,0.52
2013-5-20,82,67,57,68,62,56,99,87,59,30.19,29.96,9,1,9,0.01
2013-5-21,89,74,60,72,67,59,99,80,54,29.98,29.83,8,1,9,0.00
2013-5-22,84,71,61,73,67,60,97,88,67,29.93,29.82,7,0,10,0.00
2013-5-23,76,69,66,73,68,65,99,96,88,29.89,29.75,11,0,11,2.15
2013-5-24,67,65,63,66,64,62,99,97,94,29.76,29.73,10,1,10,0.18
2013-5-25,51,48,44,45,43,39,96,84,65,30.03,29.91,18,3,18,0.37
2013-5-26,64,54,43,42,38,34,89,60,33,30.22,29.97,16,2,18,0.00
2013-5-27,76,58,40,49,40,34,95,59,23,30.26,30.12,10,1,10,0.00
2013-5-28,64,55,47,56,52,45,98,90,60,30.23,30.14,7,0,7,0.47
2013-5-29,84,68,57,71,64,56,99,88,61,30.15,29.99,7,0,8,0.01
2013-5-30,92,77,63,70,65,62,99,72,38,30.13,30.05,9,1,9,0.00
2013-5-31,94,78,64,72,66,62,98,72,38,30.13,29.98,11,0,11,0.00
2013-6-1,92,76,62,75,68,61,99,78,48,30.02,29.89,10,1,10,0.00
2013-6-2,89,76,68,71,69,67,98,80,54,29.91,29.76,13,1,13,0.08
2013-6-3,80,71,65,70,65,47,98,81,53,29.90,29.80,10,1,11,0.20
2013-6-4,74,63,55,50,45,39,72,53,31,30.12,29.90,11,2,12,0.00
2013-6-5,78,63,47,51,46,39,89,57,33,30.22,30.11,6,1,7,0.00
2013-6-6,71,61,51,60,55,48,97,83,46,30.16,30.02,7,0,7,0.19
2013-6-7,61,60,58,61,59,58,99,98,97,30.02,29.66,4,0,4,3.10
2013-6-8,75,65,56,64,60,55,99,84,64,30.07,29.62,7,1,13,0.06
2013-6-9,81,68,56,65,59,56,99,76,45,30.18,30.07,9,1,9,0.00
2013-6-10,69,63,60,66,61,57,99,93,87,30.17,29.84,7,0,8,0.81
2013-6-11,78,69,61,69,64,59,100,84,64,29.84,29.62,17,2,18,0.18
2013-6-12,74,67,57,60,56,52,93,68,49,29.86,29.71,14,2,16,0.00
2013-6-13,61,58,55,61,57,53,98,96,93,29.86,29.50,7,0,7,1.28
2013-6-14,74,61,52,60,54,51,97,81,57,29.90,29.57,11,2,12,0.42
2013-6-15,79,68,58,60,55,48,92,66,38,30.02,29.90,8,1,10,0.00
2013-6-16,80,67,53,65,59,53,98,77,48,30.00,29.77,14,1,15,0.00
2013-6-17,86,73,60,68,63,59,99,74,45,29.92,29.83,13,1,14,0.00
2013-6-18,84,68,60,71,63,59,98,86,54,29.91,29.82,5,0,5,1.56
2013-6-19,76,64,55,60,54,45,98,72,38,30.18,29.90,8,1,8,0.02
2013-6-20,82,66,51,62,56,50,98,74,40,30.27,30.17,6,0,8,0.00
2013-6-21,84,70,56,63,59,54,97,71,45,30.30,30.22,10,1,10,0.00
2013-6-22,86,71,57,67,61,55,97,73,48,30.26,30.12,9,1,11,0.00
2013-6-23,89,76,61,71,67,60,97,75,51,30.19,30.05,10,1,10,0.00
2013-6-24,92,80,71,73,70,65,96,73,43,30.07,29.93,11,1,12,0.00
2013-6-25,90,79,66,74,68,65,96,73,47,30.00,29.79,14,1,15,0.00
2013-6-26,84,78,71,73,69,66,91,75,62,29.85,29.78,9,1,9,0.00
2013-6-27,88,76,66,74,70,65,97,83,58,29.83,29.51,8,0,10,1.46
2013-6-28,86,77,71,72,70,66,97,80,55,29.55,29.46,10,1,12,0.11
2013-6-29,87,75,67,70,67,61,96,78,46,29.70,29.49,12,1,13,0.00
2013-6-30,87,75,65,76,70,64,97,87,65,29.92,29.70,5,0,5,0.01
2013-7-1,76,74,70,74,72,69,98,95,91,30.05,29.90,5,0,5,1.06
2013-7-2,84,76,73,77,74,72,98,93,74,30.18,30.04,7,0,7,0.44
2013-7-3,86,77,70,77,73,70,98,89,70,30.25,30.17,8,0,10,0.00
2013-7-4,89,80,73,76,74,72,99,83,59,30.25,30.14,11,1,12,0.00
2013-7-5,92,81,71,76,72,70,98,77,52,30.21,30.08,8,1,10,0.00
2013-7-6,91,82,73,77,74,71,96,78,55,30.14,30.02,11,1,11,0.00
2013-7-7,94,82,72,78,74,71,98,79,52,30.07,29.92,10,1,10,0.13
2013-7-8,88,78,68,72,69,66,98,77,53,30.05,29.96,10,1,11,0.00
2013-7-9,88,78,68,74,70,66,97,77,51,30.07,29.99,11,1,11,0.00
2013-7-10,86,79,72,76,72,70,94,82,64,30.02,29.80,13,1,13,0.00
2013-7-11,84,76,68,74,70,65,97,83,59,29.94,29.80,5,0,5,0.05
2013-7-12,77,72,66,71,66,62,97,83,70,30.12,29.94,5,0,5,0.22
2013-7-13,79,71,65,76,70,64,99,96,88,30.29,30.12,2,0,2,0.13
2013-7-14,91,80,72,76,73,72,99,81,57,30.35,30.23,10,1,10,0.00
2013-7-15,93,81,72,77,73,71,97,79,53,30.25,30.14,7,0,8,0.00
2013-7-16,92,80,70,76,70,66,98,74,45,30.21,30.13,7,0,7,0.00
2013-7-17,95,81,70,78,72,66,97,75,41,30.20,30.06,5,0,6,0.00
2013-7-18,96,84,74,79,74,70,95,75,46,30.07,29.95,8,1,8,0.00
2013-7-19,96,86,75,78,75,73,97,73,50,29.97,29.78,16,1,16,0.00
2013-7-20,92,82,74,76,73,70,91,76,53,29.84,29.72,15,2,16,0.02
2013-7-21,88,78,71,72,67,62,93,71,46,29.96,29.84,2,0,4,0.00
2013-7-22,86,74,67,75,70,65,98,89,64,29.97,29.80,5,0,6,1.15
2013-7-23,87,77,71,76,73,70,99,88,59,29.80,29.56,10,1,10,1.14
2013-7-24,79,73,65,70,64,55,98,76,55,29.95,29.62,11,1,11,0.00
2013-7-25,67,64,61,61,56,50,91,75,65,30.07,29.95,5,0,5,0.00
2013-7-26,84,71,64,65,62,60,93,73,45,30.05,29.99,7,1,7,0.00
2013-7-27,86,71,58,67,62,58,98,76,45,30.06,29.95,9,1,9,0.00
2013-7-28,79,70,64,71,67,63,98,90,72,29.99,29.92,4,0,4,0.49
2013-7-29,83,72,62,69,64,52,99,79,39,30.12,29.96,9,1,9,0.00
2013-7-30,79,68,58,65,59,55,95,75,48,30.18,30.11,8,1,8,0.00
2013-7-31,82,69,57,68,62,56,98,79,52,30.17,30.04,6,0,6,0.00
2013-8-1,71,66,63,68,65,62,99,96,87,30.05,29.84,4,0,4,0.52
2013-8-2,83,72,62,68,64,59,99,79,47,29.92,29.80,12,1,12,0.00
2013-8-3,78,68,63,69,65,60,98,90,66,29.92,29.84,10,0,10,0.21
2013-8-4,77,68,58,64,58,52,98,71,45,29.99,29.87,12,2,12,0.01
2013-8-5,77,65,54,60,53,44,94,67,39,30.07,29.98,9,1,9,0.00
2013-8-6,83,67,52,60,56,52,98,73,40,30.13,30.05,7,0,8,0.00
2013-8-7,78,69,62,69,65,59,98,88,67,30.15,30.06,4,0,4,0.16
2013-8-8,84,72,69,75,70,68,99,95,73,30.07,30.00,7,0,7,0.31
2013-8-9,85,75,70,76,73,70,99,93,71,30.02,29.80,12,1,13,0.35
2013-8-10,82,73,62,70,64,57,98,76,45,30.06,29.87,11,1,12,0.00
2013-8-11,78,68,56,66,59,53,96,74,48,30.14,30.03,4,0,8,0.00
2013-8-12,85,72,65,67,64,58,97,79,43,30.05,29.93,5,0,5,0.00
2013-8-13,79,69,64,71,67,63,99,92,70,29.95,29.70,7,0,16,1.49
2013-8-14,72,64,57,64,53,47,97,68,53,30.06,29.77,16,2,16,0.00
2013-8-15,75,63,50,59,53,49,98,73,41,30.16,30.06,9,1,9,0.00
2013-8-16,80,65,52,62,56,51,98,76,40,30.22,30.14,7,0,7,0.00
2013-8-17,84,67,54,65,59,53,98,79,43,30.29,30.22,3,0,3,0.00
2013-8-18,75,66,59,68,62,58,97,87,64,30.28,30.14,2,0,2,0.01
2013-8-19,79,68,60,67,63,59,99,84,59,30.15,30.04,6,1,6,0.00
2013-8-20,86,73,61,71,65,60,98,79,48,30.14,30.06,6,0,6,0.00
2013-8-21,88,73,61,68,64,58,98,77,40,30.19,30.06,8,0,8,0.00
2013-8-22,76,70,66,73,69,64,98,95,87,30.08,29.88,5,0,5,0.30
2013-8-23,80,72,61,68,62,55,92,75,47,30.12,29.89,7,1,7,0.00
2013-8-24,79,66,54,59,55,50,97,72,38,30.37,30.12,4,0,4,0.00
2013-8-25,83,66,53,61,56,50,99,73,35,30.41,30.24,9,1,9,0.00
2013-8-26,78,70,63,70,64,58,97,80,67,30.24,29.91,8,1,8,0.11
2013-8-27,86,75,69,73,69,67,98,85,59,29.92,29.82,9,1,9,0.00
2013-8-28,85,71,65,73,69,64,99,93,64,29.91,29.85,3,0,4,0.34
2013-8-29,80,71,66,71,68,66,99,92,71,30.04,29.90,3,0,4,0.01
2013-8-30,85,74,67,72,68,66,96,83,58,30.04,29.86,10,1,10,0.00
2013-8-31,86,76,70,75,72,69,97,87,68,29.87,29.79,5,0,7,0.00
2013-9-1,82,76,72,77,73,71,98,93,80,29.87,29.80,4,0,4,0.65
2013-9-2,82,74,70,75,72,70,99,94,73,29.81,29.72,6,0,6,0.01
2013-9-3,79,70,61,70,63,57,99,81,51,29.90,29.72,10,1,10,0.18
2013-9-4,81,68,56,63,58,54,99,76,42,30.01,29.90,11,1,11,0.00
2013-9-5,74,65,53,62,54,41,97,73,34,30.18,29.93,10,1,10,0.00
2013-9-6,71,58,48,51,46,41,94,67,38,30.28,30.15,7,1,7,0.00
2013-9-7,79,62,46,59,51,45,98,72,33,30.15,29.91,9,0,9,0.00
2013-9-8,79,68,57,65,56,42,92,69,33,30.10,29.83,11,1,14,0.00
2013-9-9,73,60,47,59,51,45,94,73,47,30.26,30.10,9,0,9,0.00
2013-9-10,87,73,62,75,68,59,97,86,67,30.17,30.05,9,0,9,0.03
2013-9-11,96,81,69,78,74,68,99,80,56,30.12,29.97,6,0,8,0.00
2013-9-12,85,73,68,76,70,67,98,92,72,30.00,29.68,14,0,15,1.34
2013-9-13,74,66,56,67,59,49,98,80,57,29.87,29.64,7,1,13,0.03
2013-9-14,63,57,52,50,47,44,79,70,57,30.14,29.87,11,2,12,0.00
2013-9-15,73,56,43,53,47,42,98,75,37,30.23,30.10,9,1,9,0.00
2013-9-16,71,60,53,57,54,48,97,81,51,30.27,30.05,8,1,8,0.02
2013-9-17,65,53,43,48,42,36,94,68,40,30.45,30.27,6,1,6,0.00
2013-9-18,74,55,40,51,46,40,99,76,36,30.38,30.20,7,0,8,0.00
2013-9-19,79,58,43,56,50,42,99,77,35,30.21,30.07,7,0,8,0.00
2013-9-20,82,62,47,61,54,46,99,80,43,30.11,29.99,4,0,6,0.00
2013-9-21,76,63,50,67,60,49,99,89,68,30.03,29.67,14,0,14,0.89
2013-9-22,64,60,53,61,51,42,98,75,51,29.93,29.66,11,2,14,0.28
2013-9-23,64,54,46,49,43,41,92,69,48,30.07,29.93,10,2,11,0.00
2013-9-24,72,55,39,50,44,38,98,71,36,30.08,29.89,9,1,9,0.00
2013-9-25,72,56,43,57,48,42,98,76,42,29.98,29.89,7,0,7,0.00
2013-9-26,71,57,46,58,52,46,99,87,59,30.13,29.96,3,0,3,0.00
2013-9-27,67,57,46,56,52,45,98,85,62,30.29,30.13,3,0,3,0.00
2013-9-28,74,60,48,57,53,47,98,80,48,30.34,30.25,4,0,4,0.00
2013-9-29,73,57,46,58,52,45,99,85,53,30.26,30.08,3,0,3,0.00
2013-9-30,75,57,45,58,51,44,99,83,45,30.11,29.98,4,0,4,0.00
2013-10-1,80,62,48,64,55,47,99,82,45,30.02,29.91,7,0,8,0.01
2013-10-2,83,66,52,65,59,51,99,81,49,30.03,29.92,11,1,11,0.00
2013-10-3,79,64,51,62,57,51,99,82,47,30.14,30.03,6,0,6,0.00
2013-10-4,83,67,57,71,63,56,98,90,53,30.08,29.97,7,0,7,0.06
2013-10-5,80,69,64,68,65,63,98,89,65,30.11,30.03,4,0,4,0.00
2013-10-6,66,65,64,66,64,63,99,97,93,30.11,30.03,4,0,4,0.09
2013-10-7,76,66,57,71,64,48,99,94,69,30.04,29.72,17,1,19,0.70
2013-10-8,65,54,46,52,48,44,99,81,47,30.36,29.99,9,1,9,0.01
2013-10-9,60,52,45,49,46,42,96,80,56,30.43,30.32,7,1,7,0.00
2013-10-10,61,56,51,55,50,46,89,83,77,30.32,30.10,9,1,9,0.00
2013-10-11,66,62,59,61,57,52,88,83,79,30.11,30.04,8,1,8,0.00
2013-10-12,73,63,57,58,50,39,88,65,30,30.31,30.10,6,1,9,0.00
2013-10-13,66,57,49,53,50,47,96,80,60,30.41,30.30,6,1,8,0.00
2013-10-14,71,56,48,52,50,47,98,82,47,30.39,30.25,4,0,4,0.00
2013-10-15,74,56,45,57,51,44,99,83,52,30.28,30.13,3,0,4,0.00
2013-10-16,66,57,48,59,54,48,98,90,75,30.15,29.93,4,0,4,0.00
2013-10-17,76,65,60,63,60,58,98,87,58,29.93,29.68,6,0,6,0.02
2013-10-18,67,59,46,63,48,42,96,69,43,30.00,29.67,11,3,17,0.00
2013-10-19,63,52,40,52,45,39,98,81,49,30.00,29.77,5,0,6,0.06
2013-10-20,62,51,40,52,41,34,98,73,37,30.08,29.77,13,1,13,0.00
2013-10-21,68,50,36,44,40,35,98,73,32,30.17,30.00,6,0,8,0.00
2013-10-22,62,50,40,52,44,37,99,81,61,30.00,29.75,6,1,6,0.00
2013-10-23,55,44,35,40,36,33,96,76,48,29.83,29.63,10,1,10,0.00
2013-10-24,52,44,36,36,31,26,90,63,40,30.02,29.78,18,2,21,0.00
2013-10-25,52,41,31,34,31,28,94,71,41,30.25,30.02,16,2,16,0.00
2013-10-26,54,41,28,37,31,27,98,71,38,30.24,29.90,15,1,15,0.00
2013-10-27,56,47,36,36,33,30,91,60,39,30.14,29.86,13,1,14,0.00
2013-10-28,61,45,29,37,33,28,98,70,36,30.34,30.14,16,1,16,0.00
2013-10-29,52,43,36,37,34,30,89,71,46,30.45,30.34,7,1,7,0.00
2013-10-30,56,44,35,49,40,32,96,85,67,30.37,30.20,3,0,3,0.00
2013-10-31,60,50,39,58,49,38,99,97,92,30.26,29.80,7,0,7,0.05
2013-11-1,70,63,49,64,58,48,96,86,52,29.80,29.55,25,2,26,0.18
2013-11-2,67,54,44,50,44,39,98,72,47,29.80,29.63,12,1,12,0.00
2013-11-3,49,42,32,44,33,21,96,70,50,30.48,29.80,16,3,16,0.00
2013-11-4,46,35,28,25,20,15,81,55,30,30.68,30.48,9,2,12,0.00
2013-11-5,54,42,29,41,35,25,90,77,58,30.69,30.50,5,0,5,0.00
2013-11-6,59,50,38,50,44,36,96,82,61,30.52,30.08,6,0,6,0.00
2013-11-7,60,51,36,57,47,32,96,85,61,30.08,29.75,18,1,19,0.08
2013-11-8,47,40,34,34,29,24,90,65,43,30.24,29.94,21,2,21,0.00
2013-11-9,49,40,29,32,28,24,94,66,40,30.31,30.01,11,0,12,0.00
2013-11-10,57,46,35,40,34,30,90,65,40,30.06,29.82,18,3,25,0.01
2013-11-11,51,46,39,34,30,25,62,52,45,30.22,29.97,14,2,17,0.00
2013-11-12,50,36,29,36,24,16,90,63,48,30.31,29.94,19,3,20,0.02
2013-11-13,37,30,25,20,16,11,73,58,36,30.40,30.28,19,2,19,0.00
2013-11-14,51,36,24,25,20,17,85,57,26,30.28,30.17,9,1,13,0.00
2013-11-15,57,37,25,30,24,20,87,64,26,30.27,30.16,6,0,6,0.00
2013-11-16,61,46,31,44,39,28,96,79,49,30.34,30.24,6,0,6,0.01
2013-11-17,58,51,41,57,50,40,99,97,95,30.29,29.79,5,0,5,0.02
2013-11-18,63,57,48,60,41,27,98,59,31,29.80,29.59,19,3,19,0.29
2013-11-19,48,41,34,30,25,22,62,53,45,30.37,29.80,22,5,22,0.00
2013-11-20,42,33,24,22,18,9,78,55,25,30.64,30.36,16,3,16,0.00
2013-11-21,49,37,20,40,29,17,92,74,54,30.65,30.41,6,0,6,0.00
2013-11-22,57,49,43,50,45,38,96,86,72,30.41,29.92,13,1,13,0.04
2013-11-23,53,39,27,47,24,6,91,56,35,30.06,29.90,25,6,27,0.00
2013-11-24,27,23,20,9,6,-1,57,47,31,30.40,30.03,25,6,27,0.00
2013-11-25,34,27,17,15,12,8,74,54,43,30.50,30.34,12,1,13,0.00
2013-11-26,38,33,30,38,24,14,98,71,51,30.35,29.80,9,1,9,0.56
2013-11-27,57,43,32,57,39,19,99,88,59,29.80,29.35,19,5,26,2.45
2013-11-28,32,28,23,21,15,9,78,58,38,30.49,29.76,23,4,26,0.00
2013-11-29,35,29,22,23,19,14,89,68,54,30.76,30.48,11,1,11,0.00
2013-11-30,34,27,17,25,17,12,86,68,52,30.79,30.40,4,1,7,0.00
2013-12-1,46,36,27,34,30,24,93,78,59,30.40,30.03,4,0,4,0.00
2013-12-2,45,36,29,37,32,27,96,85,63,30.03,29.90,3,0,3,0.00
2013-12-3,53,36,26,38,32,26,98,85,55,30.03,29.88,7,0,7,0.00
2013-12-4,50,40,28,40,35,27,97,83,65,30.16,30.03,5,0,5,0.00
2013-12-5,51,48,44,50,47,40,99,97,81,30.14,29.94,5,0,5,0.08
2013-12-6,52,44,36,52,43,35,99,95,90,30.18,29.88,12,1,15,0.88
2013-12-7,37,34,29,35,26,16,96,73,53,30.54,30.11,14,2,14,0.04
2013-12-8,30,28,25,26,19,15,95,70,59,30.61,30.41,10,1,10,0.00
2013-12-9,36,32,28,35,31,26,98,97,95,30.42,29.99,9,1,9,0.02
2013-12-10,34,30,21,32,28,18,98,92,81,30.13,29.88,4,0,5,0.00
2013-12-11,32,25,18,20,17,16,93,75,53,30.33,30.13,13,1,16,0.00
2013-12-12,25,23,20,17,14,7,77,69,56,30.32,30.24,9,1,9,0.00
2013-12-13,33,27,14,20,15,-100,85,62,49,30.36,30.14,19,-8,19,0.00
2013-12-14,25,20,16,21,17,14,95,88,75,30.52,29.85,12,4,12,0.00
2013-12-15,36,31,23,31,27,21,97,85,67,29.85,29.56,18,3,19,0.07
2013-12-16,30,24,12,22,12,7,89,62,43,30.26,29.84,19,2,19,0.00
2013-12-17,24,18,10,22,16,8,94,90,82,30.25,29.98,8,1,8,0.00
2013-12-18,36,26,14,23,19,13,95,77,53,30.19,29.96,15,2,16,0.00
2013-12-19,45,30,16,29,23,14,94,75,48,30.20,30.03,9,1,9,0.20
2013-12-20,50,37,29,34,31,27,94,78,52,30.13,29.98,4,0,5,0.05
2013-12-21,57,44,33,48,39,31,98,86,67,30.01,29.91,6,0,6,0.00
2013-12-22,66,57,45,62,54,43,99,92,80,29.97,29.81,12,0,12,0.07
2013-12-23,56,49,38,56,47,30,99,94,71,30.17,29.92,17,1,18,0.77
2013-12-24,38,32,22,30,22,9,94,65,50,30.37,30.11,18,3,19,0.00
2013-12-25,26,21,15,16,9,6,79,61,47,30.55,30.37,17,2,18,0.00
2013-12-26,34,27,20,27,22,16,87,80,71,30.45,30.18,9,1,10,0.00
2013-12-27,37,30,21,25,22,19,94,73,52,30.37,30.27,13,1,15,0.00
2013-12-28,51,34,21,29,25,20,96,72,40,30.30,30.08,13,1,15,0.00
2013-12-29,42,35,28,40,33,26,98,92,79,30.09,29.48,15,2,15,1.12
2013-12-30,41,32,19,36,24,9,97,74,54,30.22,29.70,16,2,18,0.00
2013-12-31,29,23,16,24,13,8,84,64,52,30.30,30.07,14,1,14,0.00
2014-1-1,31,24,14,21,15,7,89,69,54,30.43,30.27,11,1,11,0.00
2014-1-2,28,21,10,22,17,7,92,85,76,30.27,29.73,16,5,16,0.00